Faribault, MN

4:14 AM CDT on May 23, 2017 (GMT -0500)
Faribault Municipal

Weather History for KFBL - July, 2014

Change the Weather History Date:

Thursday, July 3, 2014

  Actual Average Record
Temperature  
Mean Temperature 64 °F -  
Max Temperature 78 °F 82 °F 98 °F (1949)
Min Temperature 51 °F 60 °F 44 °F (1967)
Growing Degree Days 14 (Base 50)    
Moisture  
Dew Point 45 °F    
Average Humidity 52    
Maximum Humidity 82    
Minimum Humidity 20    
Precipitation  
Precipitation 0.00 in - - ()
Sea Level Pressure  
Sea Level Pressure 30.18 in    
Wind  
Wind Speed 1 mph (NW)    
Max Wind Speed 8 mph    
Max Gust Speed -    
Visibility 10 miles    
Events      
Averages and records for this station are not official NWS values.
T = Trace of Precipitation, MM = Missing Value Source: NWS Daily Summary

Daily Weather History Graph

Daily Weather History Graph

Search for Another Location

Airport or City:

Trip Planner

Search our weather history database for the weather conditions in past years. The results will help you decide how hot, cold, wet, or windy it might be!

Date:

Astronomy

Jul. 03, 2014 Rise Set
Actual Time 5:34 AM CDT 9:00 PM CDT
Civil Twilight 4:57 AM CDT 9:36 PM CDT
Nautical Twilight 4:10 AM CDT 10:24 PM CDT
Astronomical Twilight 3:09 AM CDT 11:24 PM CDT
Moon 11:48 AM CDT (7/3) No Moon Set
Length of Visible Light 16h 38m
Length of Day
15h 26m
Waxing Crescent, 33% of the Moon is Illuminated
Jul 3
Waxing Crescent
Jul 5
First Quarter
Jul 12
Full
Jul 18
Last Quarter
Jul 26
New

Hourly Weather History & Observations

Time (CDT) Temp. Dew Point Humidity Pressure Visibility Wind Dir Wind Speed Gust Speed Precip Events Conditions
12:14 AM 55.4 °F 48.2 °F 77% 30.11 in 10.0 mi Calm Calm - N/A   Clear
12:34 AM 55.4 °F 48.2 °F 77% 30.11 in 10.0 mi Calm Calm - N/A   Scattered Clouds
12:54 AM 55.4 °F 48.2 °F 77% 30.12 in 10.0 mi Calm Calm - N/A   Scattered Clouds
1:14 AM 55.4 °F 46.4 °F 72% 30.11 in 10.0 mi Calm Calm - N/A   Scattered Clouds
1:34 AM 53.6 °F 48.2 °F 82% 30.11 in 10.0 mi Calm Calm - N/A   Mostly Cloudy
1:54 AM 55.4 °F 48.2 °F 77% 30.11 in 10.0 mi Calm Calm - N/A   Mostly Cloudy
2:14 AM 55.4 °F 48.2 °F 77% 30.11 in 10.0 mi Calm Calm - N/A   Scattered Clouds
2:34 AM 53.6 °F 48.2 °F 82% 30.11 in 10.0 mi Calm Calm - N/A   Scattered Clouds
2:54 AM 53.6 °F 48.2 °F 82% 30.12 in 10.0 mi Calm Calm - N/A   Scattered Clouds
3:14 AM 53.6 °F 48.2 °F 82% 30.12 in 10.0 mi Calm Calm - N/A   Clear
3:34 AM 53.6 °F 48.2 °F 82% 30.12 in 10.0 mi Calm Calm - N/A   Clear
3:54 AM 53.6 °F 46.4 °F 77% 30.12 in 10.0 mi Calm Calm - N/A   Clear
4:14 AM 53.6 °F 46.4 °F 77% 30.12 in 10.0 mi Calm Calm - N/A   Clear
4:34 AM 53.6 °F 46.4 °F 77% 30.13 in 10.0 mi Calm Calm - N/A   Scattered Clouds
4:54 AM 53.6 °F 48.2 °F 82% 30.13 in 10.0 mi Calm Calm - N/A   Scattered Clouds
5:14 AM 51.8 °F 46.4 °F 82% 30.14 in 10.0 mi Calm Calm - N/A   Scattered Clouds
5:34 AM 51.8 °F 46.4 °F 82% 30.15 in 10.0 mi Calm Calm - N/A   Overcast
5:54 AM 55.4 °F 48.2 °F 77% 30.15 in 10.0 mi Calm Calm - N/A   Overcast
6:14 AM 57.2 °F 51.8 °F 82% 30.16 in 10.0 mi Calm Calm - N/A   Overcast
6:34 AM 57.2 °F 51.8 °F 82% 30.17 in 10.0 mi Calm Calm - N/A   Overcast
6:54 AM 57.2 °F 51.8 °F 82% 30.17 in 10.0 mi Calm Calm - N/A   Overcast
7:14 AM 59.0 °F 51.8 °F 77% 30.18 in 10.0 mi Calm Calm - N/A   Overcast
7:34 AM 60.8 °F 53.6 °F 77% 30.18 in 10.0 mi Calm Calm - N/A   Overcast
7:54 AM 62.6 °F 53.6 °F 72% 30.19 in 10.0 mi Calm Calm - N/A   Overcast
8:14 AM 62.6 °F 51.8 °F 68% 30.19 in 10.0 mi Calm Calm - N/A   Overcast
8:54 AM 64.4 °F 51.8 °F 64% 30.20 in 10.0 mi Calm Calm - N/A   Overcast
9:14 AM 66.2 °F 50.0 °F 56% 30.20 in 10.0 mi Calm Calm - N/A   Overcast
9:34 AM 68.0 °F 48.2 °F 49% 30.20 in 10.0 mi Calm Calm - N/A   Overcast
9:54 AM 69.8 °F 46.4 °F 43% 30.20 in 10.0 mi NNW 4.6 mph - N/A   Overcast
10:14 AM 71.6 °F 48.2 °F 43% 30.20 in 10.0 mi WNW 4.6 mph - N/A   Mostly Cloudy
10:34 AM 71.6 °F 48.2 °F 43% 30.20 in 10.0 mi North 4.6 mph - N/A   Mostly Cloudy
10:54 AM 71.6 °F 46.4 °F 41% 30.20 in 10.0 mi Calm Calm - N/A   Scattered Clouds
11:14 AM 73.4 °F 44.6 °F 36% 30.21 in 10.0 mi NW 5.8 mph - N/A   Clear
11:34 AM 73.4 °F 42.8 °F 33% 30.20 in 10.0 mi NNW 4.6 mph - N/A   Clear
11:54 AM 75.2 °F 35.6 °F 24% 30.20 in 10.0 mi North 6.9 mph - N/A   Scattered Clouds
12:14 PM 75.2 °F 32.0 °F 21% 30.21 in 10.0 mi North 4.6 mph - N/A   Mostly Cloudy
12:34 PM 75.2 °F 35.6 °F 24% 30.21 in 10.0 mi North 6.9 mph - N/A   Scattered Clouds
12:54 PM 73.4 °F 35.6 °F 25% 30.21 in 10.0 mi NW 6.9 mph - N/A   Mostly Cloudy
1:14 PM 75.2 °F 37.4 °F 25% 30.21 in 10.0 mi WSW 8.1 mph - N/A   Scattered Clouds
1:34 PM 73.4 °F 37.4 °F 27% 30.21 in 10.0 mi NNW 5.8 mph - N/A   Mostly Cloudy
1:54 PM 77.0 °F 35.6 °F 22% 30.20 in 10.0 mi WNW 4.6 mph - N/A   Scattered Clouds
2:14 PM 75.2 °F 35.6 °F 24% 30.20 in 10.0 mi NW 4.6 mph - N/A   Scattered Clouds
2:34 PM 77.0 °F 33.8 °F 21% 30.20 in 10.0 mi North 3.5 mph - N/A   Scattered Clouds
2:54 PM 77.0 °F 35.6 °F 22% 30.20 in 10.0 mi Calm Calm - N/A   Scattered Clouds
3:14 PM 77.0 °F 33.8 °F 21% 30.20 in 10.0 mi NE 3.5 mph - N/A   Scattered Clouds
3:34 PM 77.0 °F 35.6 °F 22% 30.20 in 10.0 mi North 5.8 mph - N/A   Clear
3:54 PM 77.0 °F 33.8 °F 21% 30.19 in 10.0 mi Calm Calm - N/A   Clear
4:14 PM 78.8 °F 37.4 °F 23% 30.19 in 10.0 mi Calm Calm - N/A   Mostly Cloudy
4:34 PM 78.8 °F 33.8 °F 20% 30.19 in 10.0 mi Calm Calm - N/A   Mostly Cloudy
4:54 PM 78.8 °F 35.6 °F 21% 30.18 in 10.0 mi Calm Calm - N/A   Scattered Clouds
5:14 PM 78.8 °F 35.6 °F 21% 30.19 in 10.0 mi Calm Calm - N/A   Mostly Cloudy
5:34 PM 78.8 °F 37.4 °F 23% 30.18 in 10.0 mi Calm Calm - N/A   Mostly Cloudy
5:54 PM 78.8 °F 37.4 °F 23% 30.18 in 10.0 mi West 6.9 mph - N/A   Mostly Cloudy
6:14 PM 78.8 °F 37.4 °F 23% 30.18 in 10.0 mi Calm Calm - N/A   Scattered Clouds
6:34 PM 77.0 °F 35.6 °F 22% 30.19 in 10.0 mi Calm Calm - N/A   Clear
6:54 PM 78.8 °F 35.6 °F 21% 30.19 in 10.0 mi Calm Calm - N/A   Clear
7:14 PM 77.0 °F 39.2 °F 26% 30.19 in 10.0 mi WNW 5.8 mph - N/A   Clear
7:34 PM 75.2 °F 41.0 °F 29% 30.19 in 10.0 mi West 3.5 mph - N/A   Clear
7:54 PM 75.2 °F 42.8 °F 31% 30.19 in 10.0 mi Calm Calm - N/A   Clear
8:14 PM 73.4 °F 46.4 °F 38% 30.20 in 10.0 mi Calm Calm - N/A   Clear
8:34 PM 71.6 °F 46.4 °F 41% 30.20 in 10.0 mi Calm Calm - N/A   Clear
8:54 PM 68.0 °F 46.4 °F 46% 30.20 in 10.0 mi Calm Calm - N/A   Clear
9:14 PM 64.4 °F 55.4 °F 73% 30.21 in 10.0 mi Calm Calm - N/A   Clear
9:54 PM 62.6 °F 51.8 °F 68% 30.22 in 10.0 mi Calm Calm - N/A   Clear
10:14 PM 62.6 °F 53.6 °F 72% 30.22 in 10.0 mi Calm Calm - N/A   Clear
10:34 PM 60.8 °F 53.6 °F 77% 30.22 in 10.0 mi Calm Calm - N/A   Clear
10:54 PM 60.8 °F 53.6 °F 77% 30.22 in 10.0 mi Calm Calm - N/A   Clear
11:14 PM 60.8 °F 53.6 °F 77% 30.22 in 10.0 mi Calm Calm - N/A   Clear
11:34 PM 60.8 °F 53.6 °F 77% 30.22 in 10.0 mi Calm Calm - N/A   Clear
11:54 PM 59.0 °F 51.8 °F 77% 30.23 in 10.0 mi Calm Calm - N/A   Clear